Home   Weather   New Orleans   Past weeks

Flag for USA Past Weather in New Orleans, Louisiana, USA — Yesterday and Last 2 Weeks

Now
81 °F

Clear.


Feels Like: 86 °F
Forecast: 75 / 90 °F
Wind: 3 mph from South

Location: Lakefront Airport

Current Time: Sep 25, 2016 at 2:20:22 AM

Latest Report: Sep 25, 2016 at 1:53 AM


Visibility: 10 mi

Pressure: 29.99 "Hg

Humidity: 77%

Dew Point: 73 °F

Location of New OrleansLocation

Past Weather in New Orleans — Graph

°F

New Orleans Temperature Yesterday

Maximum temperature yesterday: 92 °F (at 1:53 PM)
Minimum temperature yesterday: 80 °F (at 1:53 AM)
Average temperature yesterday: 85 °F

High & Low Weather Summary for the Past Weeks

 TemperatureHumidityPressure
High92 °F (Sep 19, 3:53 PM)91% (Sep 14, 5:01 AM)30.09 "Hg (Sep 14, 5:01 AM)
Low76 °F (Sep 14, 5:01 AM)43% (Sep 21, 10:53 AM)29.91 "Hg (Sep 18, 4:53 PM)
Average83 °F74%29.99 "Hg
* Reported Sep 10 12:53 AM — Sep 25 12:53 AM, New Orleans, Weather by CustomWeather, © 2016

Note: Actual official high and low records may vary slightly from our data, if they occured in-between our weather recording intervals... More about our weather records

Advertising

New Orleans Weather History for the Previous 24 Hours

Scroll right to see more
 ConditionsComfort  
Time TempWeatherWind HumidityBarometerVisibility
12:53 AM
Sun, Sep 25
81 °FClear.3 mph77%29.98 "Hg10 mi
11:53 PM
Sat, Sep 24
81 °FClear.5 mph74%29.99 "Hg10 mi
10:53 PM80 °FClear.8 mph74%29.99 "Hg10 mi
9:53 PM84 °FClear.No wind61%29.98 "Hg10 mi
8:53 PM83 °FClear.7 mph68%29.98 "Hg10 mi
7:53 PM83 °FClear.8 mph70%29.98 "Hg10 mi
6:53 PM85 °FClear.8 mph65%29.98 "Hg10 mi
5:53 PM88 °FPassing clouds.6 mph57%29.98 "Hg10 mi
4:53 PM89 °FPassing clouds.10 mph52%29.98 "Hg10 mi
3:53 PM92 °FScattered clouds.7 mph46%29.98 "Hg10 mi
2:53 PM91 °FScattered clouds.7 mph52%29.99 "Hg10 mi
1:53 PM92 °FSunny.7 mph51%30.01 "Hg10 mi
12:53 PM90 °FScattered clouds.8 mph56%30.04 "Hg10 mi
11:53 AM89 °FScattered clouds.6 mph57%30.06 "Hg10 mi
10:53 AM86 °FSunny.6 mph65%30.07 "Hg10 mi
9:53 AM86 °FSunny.8 mph67%30.07 "Hg10 mi
8:53 AM84 °FSunny.12 mph72%30.06 "Hg10 mi
7:53 AM83 °FSunny.8 mph77%30.05 "Hg9 mi
6:53 AM82 °FSunny.8 mph82%30.04 "Hg8 mi
5:53 AM82 °FClear.No wind77%30.03 "Hg10 mi
4:53 AM81 °FClear.3 mph82%30.01 "Hg10 mi
3:53 AM82 °FClear.5 mph77%30.00 "Hg10 mi
2:53 AM80 °FClear.3 mph79%30.01 "Hg10 mi
Weather by CustomWeather, © 2016

See weather overviewHow to use our weather pages